Simultaneous Nadir Overpasses (SNOs) Predictions

Prediction of SNOs between NOAA-20 and NOAA-19 Satellite Orbit:

Table of predicted SNOs for the next 14.0 days since TLE Epoch: 6/16/2022
Index Date (NOAA-20) Time (NOAA-20) Lat,Lon (NOAA-20) SZA (NOAA-20 ) Date (NOAA-19) Time (NOAA-19) Lat,Lon (NOAA-19) SZA (NOAA-19 ) Distance(km) Time Diff (sec)
1 06/19/2022 11:52:08 76.43, -15.90 53.71 06/19/2022 11:51:02 76.44, -19.17 54.04 85.12 66
2 06/19/2022 12:43:02 -76.86, 149.76 125.76 06/19/2022 12:41:48 -76.84, 149.77 125.75 2.75 74
3 06/19/2022 13:33:47 76.84, -42.83 54.22 06/19/2022 13:32:52 76.86, -42.90 54.26 2.95 55
4 06/19/2022 14:24:32 -76.87, 124.36 125.75 06/19/2022 14:23:47 -76.88, 124.43 125.73 1.83 45
5 06/19/2022 15:15:18 76.89, -68.41 54.28 06/19/2022 15:14:52 76.86, -68.42 54.26 3.69 26
6 06/19/2022 16:06:01 -76.87, 98.97 125.74 06/19/2022 16:05:46 -76.87, 98.91 125.74 1.41 15
7 06/19/2022 16:56:47 76.90, -93.81 54.29 06/19/2022 16:56:50 76.89, -93.75 54.28 1.41 3
8 06/19/2022 17:47:31 -76.88, 73.57 125.74 06/19/2022 17:47:45 -76.91, 73.58 125.72 3.04 14
9 06/19/2022 18:38:17 76.90,-119.21 54.29 06/19/2022 18:38:50 76.89,-119.27 54.28 2.17 33
10 06/19/2022 19:29:01 -76.89, 48.17 125.73 06/19/2022 19:29:45 -76.90, 48.06 125.72 3.29 44
11 06/19/2022 20:19:47 76.91,-144.61 54.30 06/19/2022 20:20:49 76.93,-144.60 54.30 2.02 62
12 06/19/2022 21:10:32 -76.94, 22.60 125.67 06/19/2022 21:11:44 -76.94, 22.73 125.70 3.39 72



Historial Predications of SNOs between NOAA-20 and NOAA-19
